Volver al catálogo

STARLINK-30111

ActivoComunicacionesVLEO
NORAD 56302·PAYLOAD·🇺🇸 United States

Lanzado Apr 19, 2023 desde Cape Canaveral Space Force Station

Loading…

Próximos Pases (próximas 24 horas)

TLE

ActualizadoSource: CelesTrak SupGP

Época: Sep 14, 2026, 21:19 UTC

1 56302C 23056S   26257.88868056  .00025006  00000+0  90571-3 0  2577
2 56302  42.9996 220.0894 0001201 259.6440 276.3015 15.27565884    12

Sigue STARLINK-30111 en tiempo real con AllMySat

Download on the App Store